Cloud_Cover
74 7 60 3 4 5 1 0 22 96 100 29 22 100 100 100 100 84 45 50 98 72 100 100 100 100 100 100 100 100 100 100
5 5 4 5 5 5 5 2 5 100 100 75 93 100 100 100 75 100 88 69 36 55 100 100 100 100 100 100 100 100 100 100
4 3 5 6 46 100 14 0 0 16 0 0 5 84 100 97 100 99 73 68 59 52 100 100 100 100 100 100 100 100 100 100
100 100 100 92 77 5 5 0 0 23 0 0 35 79 81 100 100 87 100 96 90 88 100 100 100 100 100 100 100 100 100 100
23 5 17 6 5 1 4 0 2 7 5 0 8 5 20 18 94 75 100 66 88 100 100 100 100 100 100 100 100 100 100 100
94 6 5 5 4 5 1 0 5 3 18 1 0 4 5 26 51 100 100 98 81 99 98 100 100 100 100 100 100 100 100 100
18 5 5 1 5 4 0 0 5 3 40 25 2 5 3 15 21 18 78 100 98 100 97 100 100 100 100 100 100 100 100 100
5 6 5 4 5 0 0 0 0 27 100 47 45 5 5 5 7 0 18 100 100 94 81 96 100 100 100 100 100 100 100 100
5 5 5 5 0 0 0 0 0 100 100 85 63 8 15 14 51 0 14 58 99 68 56 55 100 100 100 100 100 100 100 99
74 81 6 4 0 0 0 3 84 100 100 100 84 20 30 23 52 5 38 82 84 100 100 100 100 100 100 100 100 100 100 100
99 77 3 0 0 0 70 99 84 100 100 100 92 80 50 40 26 11 69 78 60 78 100 100 100 100 98 99 100 100 100 100
100 100 59 0 3 60 100 100 100 100 100 100 90 90 89 44 27 39 63 75 59 88 100 100 100 100 100 100 100 100 100 100
100 100 100 84 25 85 100 100 100 100 100 100 99 100 99 42 26 51 99 99 42 100 100 90 100 100 100 100 100 100 100 100
100 100 100 100 100 100 100 100 100 100 100 100 100 100 83 34 100 76 100 100 100 97 100 100 100 100 87 83 99 85 100 100
100 100 100 100 100 100 100 100 100 100 100 100 100 100 99 70 100 100 100 100 100 100 100 100 100 100 79 90 92 86 70 95
100 100 100 100 100 100 100 100 100 100 100 100 100 100 100 100 100 100 100 100 100 100 100 100 100 96 75 73 70 66 47 48
100 100 100 100 100 100 100 100 100 100 100 100 100 100 100 100 100 100 100 100 100 100 100 100 100 100 100 73 84 100 100 100
100 100 100 100 100 100 100 100 100 100 100 100 100 100 100 100 100 100 100 100 100 100 100 100 100 100 100 82 69 100 100 100
100 100 100 100 100 100 100 100 100 100 100 100 100 100 100 100 100 100 100 100 100 100 100 100 100 100 100 100 100 100 100 100